STARLINK-36805, 68116

Orbit data source: Space-Track

STARLINK-36805, 68116 is a payload satellite owned by SpaceX/Seattle (US) in SSO that was launched on Sun, 08 Mar 2026 UTC via an FALCON 9 launch vehicle from the Air Force Western Test Range (AFWTR). Payload-class satellites include a variety of spacecraft equipped with specific instruments for various scientific and technological missions. These include communications satellites like Starlink; space stations such as the ISS; scientific satellites like the Hubble; Earth observation satellites from companies like Planet Labs, Umbra, and HawkEye 360; GPS; miniature CubeSats for education and research; and military/defense satellites.

Loading next visibility...
Identifier
68116, 2026-044R
Orbit
SSO
Country
Flag of USUS
Related business
Manufacturer
SpaceX/Seattle
Mission
Operational Commercial Communications
Bus & Motor
STARLINK V2MO, Unknown motor
Mass
575 kg wet, ~530 kg dry
Launch date (UTC)
2026-03-08 (6 months ago)
Launch vehicle
FALCON 9
Launch site
Air Force Western Test Range (AFWTR)
Object type
Payload
Rocket body
Debris
Shape & HBR
Box + 1 Pan, 17.7 m
Radar Cross Section
41.120 m², Large (>1 m²)

Expand to show TLE details & history
Last TLE update: 6 hours ago

TLE from 6 hours ago
0 STARLINK-36805
1 68116U 26044R   26247.15259866  .00014653  00000-0  45505-3 0  9992
2 68116  97.2853 206.3496 0001686  95.7365 264.4070 15.33464607 28938
Epoch: 2026-09-04T03:39Z
TLE epoch observation values (Epoch: 2026-09-04T03:39:44.524Z)
Latitude
-0.00001°
Longitude
168.13356°
Altitude
468.71 km
Speed
7.632 km/s
True Right ascension
13h 45m 23s
True Declination
0° 00' 00"
Sunlit
Object was in daylight at epoch
Visualization orbit readout
Latitude
Unknown
Longitude
Unknown
Altitude
Unknown
Speed
Unknown
Apparent Right ascension
Unknown
Apparent Declination
Unknown
Sunlit
N/A
Visualization observer readout
Local Sidereal Time
01:43:34
Azimuth
Unknown
Elevation
Unknown
Doppler factor
Unknown
Orbital elements
Apogee altitude
463.581 km
Perigee altitude
461.274 km
Semi-major axis
6,840.565 km
Eccentricity
0.00017
Inclination
97.2853°
RAAN
206.3496°
Arg. of periapsis
95.7365°
True anomaly
264.38777°
Mean anomaly
264.407°
Eccentric anomaly
264.39739°
Mean motion
3.83624 °/min
Orbital period
93.84 mins
BSTAR
0.00045505
Loading maneuver chart data...
Computing Atmospheric mass density...
Loading historical data...
Loading historical data...
Loading historical data...
Loading historical data...
Loading historical data...
Loading historical data...
Loading historical data...

Documentation

Showing up to 5 results
|